Time,TemperatureF,DewpointF,PressureIn,WindDirection,WindDirectionDegrees,WindSpeedMPH,WindSpeedGustMPH,Humidity,HourlyPrecipIn,Conditions,Clouds,dailyrainin,SoftwareType,DateUTC
2013-03-28 06:38:00,43.1,38.0,30.21,East,98,0.0,0.0,82,0.00,,,0.00,Wunderground v.1.15,2013-03-28 11:38:00,
2013-03-28 06:42:00,43.0,37.9,30.21,East,98,0.0,0.0,82,0.00,,,0.00,Wunderground v.1.15,2013-03-28 11:42:00,
2013-03-28 06:47:00,43.0,38.2,30.21,East,98,0.0,0.0,83,0.00,,,0.00,Wunderground v.1.15,2013-03-28 11:47:00,
2013-03-28 06:52:00,42.9,37.8,30.21,East,100,0.0,0.0,82,0.00,,,0.00,Wunderground v.1.15,2013-03-28 11:52:00,
2013-03-28 06:53:00,42.9,37.8,30.21,East,101,0.0,0.0,82,0.00,,,0.00,Wunderground v.1.15,2013-03-28 11:53:00,
2013-03-28 06:58:00,42.9,37.5,30.21,East,100,0.0,0.0,81,0.00,,,0.00,Wunderground v.1.15,2013-03-28 11:58:00,
2013-03-28 07:03:00,42.8,37.4,30.21,East,100,0.0,0.0,81,0.00,,,0.00,Wunderground v.1.15,2013-03-28 12:03:00,
2013-03-28 07:09:00,42.7,37.6,30.21,East,101,0.0,0.0,82,0.00,,,0.00,Wunderground v.1.15,2013-03-28 12:09:00,
2013-03-28 07:14:00,42.6,37.8,30.21,East,100,0.0,0.0,83,0.00,,,0.00,Wunderground v.1.15,2013-03-28 12:14:00,
2013-03-28 07:19:00,42.4,37.6,30.21,East,100,0.0,0.0,83,0.00,,,0.00,Wunderground v.1.15,2013-03-28 12:19:00,
2013-03-28 07:24:00,42.2,37.7,30.21,East,100,0.0,0.0,84,0.00,,,0.00,Wunderground v.1.15,2013-03-28 12:24:00,
2013-03-28 07:29:00,42.2,38.0,30.21,East,100,0.0,0.0,85,0.00,,,0.00,Wunderground v.1.15,2013-03-28 12:29:00,
2013-03-28 07:34:00,42.4,38.2,30.21,East,100,0.0,0.0,85,0.00,,,0.00,Wunderground v.1.15,2013-03-28 12:34:00,
2013-03-28 07:39:00,42.5,38.3,30.21,East,100,0.0,0.0,85,0.00,,,0.00,Wunderground v.1.15,2013-03-28 12:39:00,
2013-03-28 07:44:00,42.6,38.7,30.21,East,100,0.0,0.0,86,0.00,,,0.00,Wunderground v.1.15,2013-03-28 12:44:00,
2013-03-28 07:49:00,42.8,38.6,30.21,East,100,0.0,0.0,85,0.00,,,0.00,Wunderground v.1.15,2013-03-28 12:49:00,
2013-03-28 07:54:00,42.9,38.7,30.22,East,101,0.0,0.0,85,0.00,,,0.00,Wunderground v.1.15,2013-03-28 12:54:00,
2013-03-28 07:59:00,43.2,39.0,30.22,East,101,0.0,0.0,85,0.00,,,0.00,Wunderground v.1.15,2013-03-28 12:59:00,
2013-03-28 08:04:00,43.5,39.0,30.22,East,100,0.0,0.0,84,0.00,,,0.00,Wunderground v.1.15,2013-03-28 13:04:00,
2013-03-28 08:09:00,43.7,38.9,30.22,East,100,0.0,0.0,83,0.00,,,0.00,Wunderground v.1.15,2013-03-28 13:09:00,
2013-03-28 08:14:00,43.9,39.1,30.22,East,100,0.0,0.0,83,0.00,,,0.00,Wunderground v.1.15,2013-03-28 13:14:00,
2013-03-28 08:19:00,44.4,39.9,30.22,East,100,0.0,0.0,84,0.00,,,0.00,Wunderground v.1.15,2013-03-28 13:19:00,
2013-03-28 08:24:00,45.0,40.1,30.22,East,100,0.0,0.0,83,0.00,,,0.00,Wunderground v.1.15,2013-03-28 13:24:00,
2013-03-28 08:29:00,46.2,40.4,30.22,East,100,0.0,0.0,80,0.00,,,0.00,Wunderground v.1.15,2013-03-28 13:29:00,
2013-03-28 08:34:00,47.0,40.5,30.22,East,100,0.0,0.0,78,0.00,,,0.00,Wunderground v.1.15,2013-03-28 13:34:00,
2013-03-28 08:39:00,48.6,41.0,30.22,ESE,102,0.0,0.0,75,0.00,,,0.00,Wunderground v.1.15,2013-03-28 13:39:00,
2013-03-28 08:44:00,49.5,40.1,30.22,East,100,0.0,0.0,70,0.00,,,0.00,Wunderground v.1.15,2013-03-28 13:44:00,
2013-03-28 08:49:00,50.0,39.1,30.22,East,100,0.0,0.0,66,0.00,,,0.00,Wunderground v.1.15,2013-03-28 13:49:00,
2013-03-28 08:54:00,50.1,40.3,30.22,East,100,0.0,0.0,69,0.00,,,0.00,Wunderground v.1.15,2013-03-28 13:54:00,
2013-03-28 08:59:00,50.6,40.4,30.23,NNW,348,0.0,0.0,68,0.00,,,0.00,Wunderground v.1.15,2013-03-28 13:59:00,
2013-03-28 09:04:00,51.0,40.8,30.22,North,349,0.0,0.0,68,0.00,,,0.00,Wunderground v.1.15,2013-03-28 14:04:00,
2013-03-28 09:09:00,52.4,40.6,30.22,NNW,348,0.0,0.0,64,0.00,,,0.00,Wunderground v.1.15,2013-03-28 14:09:00,
2013-03-28 09:14:00,53.0,40.7,30.23,NNW,348,0.0,0.0,63,0.00,,,0.00,Wunderground v.1.15,2013-03-28 14:14:00,
2013-03-28 09:19:00,53.1,39.6,30.23,North,349,0.0,0.0,60,0.00,,,0.00,Wunderground v.1.15,2013-03-28 14:19:00,
2013-03-28 09:24:00,53.4,39.4,30.23,North,354,0.0,0.0,59,0.00,,,0.00,Wunderground v.1.15,2013-03-28 14:24:00,
2013-03-28 09:29:00,54.1,38.3,30.22,NNE,18,0.0,0.0,55,0.00,,,0.00,Wunderground v.1.15,2013-03-28 14:29:00,
2013-03-28 09:34:00,54.8,38.0,30.22,WSW,248,0.0,0.0,53,0.00,,,0.00,Wunderground v.1.15,2013-03-28 14:34:00,
2013-03-28 09:39:00,55.2,37.9,30.22,West,274,0.0,0.0,52,0.00,,,0.00,Wunderground v.1.15,2013-03-28 14:39:00,
2013-03-28 09:44:00,55.5,38.6,30.22,West,266,0.0,0.0,53,0.00,,,0.00,Wunderground v.1.15,2013-03-28 14:44:00,
2013-03-28 09:49:00,55.6,37.7,30.22,West,273,0.0,0.0,51,0.00,,,0.00,Wunderground v.1.15,2013-03-28 14:49:00,
2013-03-28 09:54:00,56.3,38.4,30.22,West,266,0.0,0.0,51,0.00,,,0.00,Wunderground v.1.15,2013-03-28 14:54:00,
2013-03-28 09:59:00,56.7,38.3,30.22,North,354,0.0,0.0,50,0.00,,,0.00,Wunderground v.1.15,2013-03-28 14:59:00,
2013-03-28 10:04:00,57.1,37.0,30.22,SSE,163,1.0,3.0,47,0.00,,,0.00,Wunderground v.1.15,2013-03-28 15:04:00,
2013-03-28 10:09:00,57.7,38.7,30.22,West,263,1.0,4.0,49,0.00,,,0.00,Wunderground v.1.15,2013-03-28 15:09:00,
2013-03-28 10:14:00,58.1,38.0,30.21,SW,215,4.0,5.0,47,0.00,,,0.00,Wunderground v.1.15,2013-03-28 15:14:00,
2013-03-28 10:19:00,58.5,37.8,30.21,SW,219,3.0,5.0,46,0.00,,,0.00,Wunderground v.1.15,2013-03-28 15:19:00,
2013-03-28 10:25:00,59.0,38.8,30.21,SSW,209,3.0,4.0,47,0.00,,,0.00,Wunderground v.1.15,2013-03-28 15:25:00,
2013-03-28 10:30:00,59.5,38.7,30.21,SW,224,1.0,7.0,46,0.00,,,0.00,Wunderground v.1.15,2013-03-28 15:30:00,
2013-03-28 10:34:00,59.9,38.5,30.21,WSW,248,4.0,10.0,45,0.00,,,0.00,Wunderground v.1.15,2013-03-28 15:34:00,
2013-03-28 10:39:00,60.2,39.3,30.21,SW,214,3.0,10.0,46,0.00,,,0.00,Wunderground v.1.15,2013-03-28 15:39:00,
2013-03-28 10:44:00,60.5,40.2,30.21,WSW,253,8.0,8.0,47,0.00,,,0.00,Wunderground v.1.15,2013-03-28 15:44:00,
2013-03-28 10:50:00,60.8,41.0,30.21,WSW,249,3.0,8.0,48,0.00,,,0.00,Wunderground v.1.15,2013-03-28 15:50:00,
2013-03-28 10:55:00,61.2,41.9,30.21,SW,225,2.0,5.0,49,0.00,,,0.00,Wunderground v.1.15,2013-03-28 15:55:00,
2013-03-28 11:00:00,61.6,41.2,30.21,West,265,3.0,7.0,47,0.00,,,0.00,Wunderground v.1.15,2013-03-28 16:00:00,
2013-03-28 11:05:00,62.0,41.5,30.21,SSW,212,3.0,7.0,47,0.00,,,0.00,Wunderground v.1.15,2013-03-28 16:05:00,
2013-03-28 11:10:00,62.0,41.5,30.21,SSW,194,1.0,8.0,47,0.00,,,0.00,Wunderground v.1.15,2013-03-28 16:10:00,
2013-03-28 11:15:00,62.4,41.9,30.21,SSW,201,4.0,7.0,47,0.00,,,0.00,Wunderground v.1.15,2013-03-28 16:15:00,
2013-03-28 11:20:00,62.8,42.8,30.21,SW,222,3.0,7.0,48,0.00,,,0.00,Wunderground v.1.15,2013-03-28 16:20:00,
2013-03-28 11:25:00,63.5,44.0,30.21,SSW,211,3.0,7.0,49,0.00,,,0.00,Wunderground v.1.15,2013-03-28 16:25:00,
2013-03-28 11:30:00,63.8,43.2,30.20,West,271,2.0,10.0,47,0.00,,,0.00,Wunderground v.1.15,2013-03-28 16:30:00,
2013-03-28 11:35:00,64.0,42.8,30.20,SW,214,5.0,10.0,46,0.00,,,0.00,Wunderground v.1.15,2013-03-28 16:35:00,
2013-03-28 11:40:00,64.0,43.9,30.20,SSW,193,4.0,10.0,48,0.00,,,0.00,Wunderground v.1.15,2013-03-28 16:40:00,
2013-03-28 11:45:00,64.5,43.8,30.20,West,275,3.0,9.0,47,0.00,,,0.00,Wunderground v.1.15,2013-03-28 16:45:00,
2013-03-28 11:50:00,64.9,43.6,30.20,WSW,255,3.0,10.0,46,0.00,,,0.00,Wunderground v.1.15,2013-03-28 16:50:00,
2013-03-28 11:55:00,65.1,43.8,30.19,WSW,254,4.0,7.0,46,0.00,,,0.00,Wunderground v.1.15,2013-03-28 16:55:00,
2013-03-28 12:00:00,65.8,45.0,30.20,West,263,3.0,7.0,47,0.00,,,0.00,Wunderground v.1.15,2013-03-28 17:00:00,
2013-03-28 12:05:00,66.1,44.7,30.19,SW,214,5.0,10.0,46,0.00,,,0.00,Wunderground v.1.15,2013-03-28 17:05:00,
2013-03-28 12:10:00,66.4,45.5,30.19,SSW,211,5.0,10.0,47,0.00,,,0.00,Wunderground v.1.15,2013-03-28 17:10:00,
2013-03-28 12:15:00,66.5,45.6,30.19,SW,222,6.0,9.0,47,0.00,,,0.00,Wunderground v.1.15,2013-03-28 17:15:00,
2013-03-28 12:20:00,65.9,45.1,30.19,SW,222,5.0,10.0,47,0.00,,,0.00,Wunderground v.1.15,2013-03-28 17:20:00,
2013-03-28 12:25:00,66.2,45.9,30.19,SSW,211,4.0,8.0,48,0.00,,,0.00,Wunderground v.1.15,2013-03-28 17:25:00,
2013-03-28 12:30:00,66.6,45.7,30.19,WSW,253,5.0,10.0,47,0.00,,,0.00,Wunderground v.1.15,2013-03-28 17:30:00,
2013-03-28 12:35:00,66.9,46.6,30.19,SSW,202,2.0,6.0,48,0.00,,,0.00,Wunderground v.1.15,2013-03-28 17:35:00,
2013-03-28 12:40:00,67.5,46.6,30.18,West,275,5.0,10.0,47,0.00,,,0.00,Wunderground v.1.15,2013-03-28 17:40:00,
2013-03-28 12:45:00,67.7,47.3,30.18,SW,233,10.0,11.0,48,0.00,,,0.00,Wunderground v.1.15,2013-03-28 17:45:00,
2013-03-28 12:50:00,67.6,47.8,30.18,WSW,250,4.0,11.0,49,0.00,,,0.00,Wunderground v.1.15,2013-03-28 17:50:00,
2013-03-28 12:55:00,68.0,47.6,30.18,SW,226,3.0,8.0,48,0.00,,,0.00,Wunderground v.1.15,2013-03-28 17:55:00,
2013-03-28 13:00:00,68.5,48.0,30.18,SW,228,6.0,9.0,48,0.00,,,0.00,Wunderground v.1.15,2013-03-28 18:00:00,
2013-03-28 13:05:00,68.3,47.8,30.18,West,264,6.0,10.0,48,0.00,,,0.00,Wunderground v.1.15,2013-03-28 18:05:00,
2013-03-28 13:10:00,68.0,47.6,30.17,WSW,239,4.0,11.0,48,0.00,,,0.00,Wunderground v.1.15,2013-03-28 18:10:00,
2013-03-28 13:15:00,68.3,47.8,30.17,WSW,246,4.0,11.0,48,0.00,,,0.00,Wunderground v.1.15,2013-03-28 18:15:00,
2013-03-28 13:20:00,68.4,47.9,30.17,West,266,3.0,11.0,48,0.00,,,0.00,Wunderground v.1.15,2013-03-28 18:20:00,
2013-03-28 13:25:00,68.1,47.7,30.17,West,281,2.0,6.0,48,0.00,,,0.00,Wunderground v.1.15,2013-03-28 18:25:00,
2013-03-28 13:30:00,67.6,47.2,30.17,SSW,197,2.0,7.0,48,0.00,,,0.00,Wunderground v.1.15,2013-03-28 18:30:00,
2013-03-28 13:35:00,67.0,47.7,30.16,WSW,239,4.0,7.0,50,0.00,,,0.00,Wunderground v.1.15,2013-03-28 18:35:00,
2013-03-28 13:40:00,67.2,47.9,30.16,WSW,249,1.0,7.0,50,0.00,,,0.00,Wunderground v.1.15,2013-03-28 18:40:00,
2013-03-28 13:45:00,68.1,49.3,30.16,NW,304,6.0,7.0,51,0.00,,,0.00,Wunderground v.1.15,2013-03-28 18:45:00,
2013-03-28 13:50:00,68.4,49.0,30.16,WSW,248,2.0,11.0,50,0.00,,,0.00,Wunderground v.1.15,2013-03-28 18:50:00,
2013-03-28 13:55:00,68.7,47.6,30.16,West,273,4.0,9.0,47,0.00,,,0.00,Wunderground v.1.15,2013-03-28 18:55:00,
2013-03-28 14:00:00,68.9,47.8,30.15,WSW,258,3.0,10.0,47,0.00,,,0.00,Wunderground v.1.15,2013-03-28 19:00:00,
2013-03-28 14:05:00,69.4,48.3,30.15,SW,228,2.0,8.0,47,0.00,,,0.00,Wunderground v.1.15,2013-03-28 19:05:00,
2013-03-28 14:10:00,69.8,47.5,30.15,WSW,258,4.0,10.0,45,0.00,,,0.00,Wunderground v.1.15,2013-03-28 19:10:00,
2013-03-28 14:15:00,69.0,47.4,30.15,SW,233,4.0,7.0,46,0.00,,,0.00,Wunderground v.1.15,2013-03-28 19:15:00,
2013-03-28 14:20:00,68.8,47.7,30.15,SSW,198,4.0,11.0,47,0.00,,,0.00,Wunderground v.1.15,2013-03-28 19:20:00,
2013-03-28 14:25:00,68.5,48.0,30.14,SW,233,3.0,10.0,48,0.00,,,0.00,Wunderground v.1.15,2013-03-28 19:25:00,
2013-03-28 14:30:00,68.9,48.4,30.14,SSW,211,9.0,9.0,48,0.00,,,0.00,Wunderground v.1.15,2013-03-28 19:30:00,
2013-03-28 14:35:00,69.4,48.3,30.14,WSW,239,2.0,10.0,47,0.00,,,0.00,Wunderground v.1.15,2013-03-28 19:35:00,
2013-03-28 14:40:00,69.7,48.6,30.13,WSW,240,2.0,10.0,47,0.00,,,0.00,Wunderground v.1.15,2013-03-28 19:40:00,
2013-03-28 14:45:00,70.4,48.0,30.14,WSW,248,5.0,6.0,45,0.00,,,0.00,Wunderground v.1.15,2013-03-28 19:45:00,
2013-03-28 14:50:00,70.5,48.7,30.13,SW,218,2.0,4.0,46,0.00,,,0.00,Wunderground v.1.15,2013-03-28 19:50:00,
2013-03-28 14:55:00,70.8,48.4,30.13,SW,215,2.0,9.0,45,0.00,,,0.00,Wunderground v.1.15,2013-03-28 19:55:00,
2013-03-28 15:00:00,70.7,48.3,30.12,SSW,205,3.0,9.0,45,0.00,,,0.00,Wunderground v.1.15,2013-03-28 20:00:00,
2013-03-28 15:05:00,70.7,47.7,30.12,SW,232,3.0,9.0,44,0.00,,,0.00,Wunderground v.1.15,2013-03-28 20:05:00,
2013-03-28 15:10:00,70.8,48.4,30.12,SSE,162,3.0,4.0,45,0.00,,,0.00,Wunderground v.1.15,2013-03-28 20:10:00,
2013-03-28 15:15:00,71.3,48.9,30.12,SW,217,4.0,8.0,45,0.00,,,0.00,Wunderground v.1.15,2013-03-28 20:15:00,
2013-03-28 15:20:00,71.2,47.6,30.12,West,273,9.0,9.0,43,0.00,,,0.00,Wunderground v.1.15,2013-03-28 20:20:00,
2013-03-28 15:25:00,71.1,49.8,30.12,WSW,238,4.0,12.0,47,0.00,,,0.00,Wunderground v.1.15,2013-03-28 20:25:00,
2013-03-28 15:30:00,71.5,48.4,30.12,SW,221,7.0,8.0,44,0.00,,,0.00,Wunderground v.1.15,2013-03-28 20:30:00,
2013-03-28 15:35:00,71.4,48.9,30.12,SW,224,3.0,13.0,45,0.00,,,0.00,Wunderground v.1.15,2013-03-28 20:35:00,
2013-03-28 15:40:00,71.2,48.8,30.12,WSW,252,6.0,6.0,45,0.00,,,0.00,Wunderground v.1.15,2013-03-28 20:40:00,